Location: Dos Palmas
(32.4468°N, 116.8732°W)
Time: 00:31:41
(UTC+00:00)

Cosmos 2233 Rocket - Pass Details

Date: 20 June 2021
Orbit: 954 x 990 km, 82.9° (Epoch: 01 August)

Event Time Altitude Azimuth Distance (km) Brightness Sun altitude
Rises 05:55:33 0° 355° (N) 3,640 8.0 -27.9°
Reaches altitude 10° 05:58:03 10° 357° (N) 2,694 7.1 -28.1°
Maximum altitude 06:04:14 80° 84° (E) 980 3.8 -28.8°
Enters shadow 06:04:19 80° 98° (E) 980 3.8 -28.8°
